Temp
57 57 56 55 54 53 62 75 71 85 87 71 76 72 76 70 81 86 81 81 79 77 80 77 79 81 85 91 93 85 91 86 77 83 92 94 92 86 85 75 71 79 78 77
57 57 56 55 54 53 65 70 76 86 83 67 73 78 77 80 78 79 79 78 81 83 77 72 79 83 89 89 89 85 90 81 73 76 86 91 85 88 89 87 84 74 72 75
57 57 57 56 55 54 61 69 69 78 77 80 72 72 73 73 81 79 81 80 82 79 76 81 75 80 87 88 90 72 83 83 77 73 77 85 80 84 87 85 77 77 80 81
57 57 57 56 55 54 61 72 72 74 70 71 75 74 72 70 72 80 80 76 77 76 71 75 76 81 84 88 72 84 86 74 81 83 84 84 84 84 85 83 83 78 78 72
57 57 57 56 55 54 65 68 70 75 72 73 70 65 68 69 74 76 74 74 77 80 74 75 74 80 81 81 87 84 87 74 80 78 85 84 82 86 86 86 86 85 85 69
57 57 57 56 54 54 71 77 76 70 65 73 71 72 68 70 74 77 80 80 79 77 80 85 87 90 88 86 82 80 79 77 74 70 80 81 74 81 84 86 87 86 77 80
57 57 57 56 55 53 70 72 69 66 66 71 69 71 73 73 75 72 78 81 77 81 88 88 88 90 87 86 85 86 76 74 75 71 67 51 77 87 89 84 84 86 85 81
57 57 57 57 56 54 65 73 69 67 64 74 73 71 68 75 77 76 78 80 82 87 82 75 70 74 75 79 84 81 84 76 71 67 69 75 77 80 82 81 77 81 81 82
57 57 57 57 56 55 62 73 73 67 65 70 72 70 72 70 71 76 78 85 87 86 80 75 63 63 69 69 74 82 81 77 72 70 63 61 68 77 82 82 71 77 78 77
57 57 57 57 56 55 61 71 70 67 63 73 72 69 68 75 74 73 75 75 79 84 75 67 67 63 70 66 66 68 72 70 68 68 65 72 76 78 81 67 66 75 77 76
57 57 57 57 57 57 60 72 74 66 65 71 74 75 70 73 75 69 65 74 77 75 66 69 67 63 62 69 70 67 68 66 68 69 64 60 77 78 68 66 73 74 75 75
57 57 57 57 57 57 56 68 75 74 63 68 75 76 78 77 76 72 76 72 69 70 68 67 73 68 73 67 63 72 62 70 62 64 61 72 77 72 74 76 74 74 74 75
56 57 57 57 56 56 55 68 70 68 63 69 74 75 83 87 84 86 70 79 71 70 72 69 71 64 62 64 64 68 72 75 67 68 71 73 75 77 78 77 75 77 77 78
56 56 57 56 56 55 54 67 72 67 64 62 74 84 78 85 86 82 82 78 79 77 76 71 72 66 69 70 68 67 68 56 72 71 73 75 76 76 76 76 77 77 78 77
56 56 56 56 55 55 58 68 71 70 62 59 66 78 84 85 82 79 80 78 75 77 75 73 71 79 77 78 78 74 71 71 68 59 73 73 72 75 77 76 75 77 75 76
55 55 56 55 55 54 58 65 71 71 68 60 63 83 77 80 80 79 77 78 76 77 75 75 78 79 73 69 66 74 76 63 78 70 77 76 76 76 77 75 76 76 75 76
54 54 54 54 54 62 63 60 63 57 67 59 62 71 79 81 79 80 79 78 77 77 75 74 75 76 73 71 66 72 77 79 76 78 77 74 76 74 77 78 77 74 76 76
54 53 54 54 54 55 61 71 56 63 65 65 60 68 73 80 74 72 80 76 78 76 74 77 74 76 74 67 72 75 73 77 77 78 79 77 78 78 78 79 78 76 75 73
53 53 54 57 55 63 68 57 58 65 63 58 64 64 65 80 75 78 77 78 69 79 71 73 75 71 66 70 71 74 76 75 77 78 79 79 77 76 77 77 77 74 70 71
53 53 52 58 68 56 60 61 61 61 63 61 58 72 68 76 74 72 72 74 70 66 72 80 70 69 74 77 75 76 75 77 79 74 73 74 74 75 75 75 74 71 67 68
50 46 52 69 58 67 64 59 59 62 57 60 65 69 69 79 69 69 75 71 72 63 69 68 68 69 72 74 74 77 77 77 79 79 79 79 78 76 73 73 70 66 64 65
53 54 63 66 64 57 55 55 61 60 57 62 63 69 73 76 78 70 72 66 70 60 75 68 63 63 72 74 74 75 76 79 78 79 77 78 76 76 74 74 72 68 64 65
58 55 55 55 56 42 48 48 56 58 65 64 63 66 72 74 74 70 69 62 63 77 66 64 67 68 71 72 76 75 78 78 78 77 78 77 74 76 74 75 77 75 73 74
53 50 40 49 51 56 59 61 63 70 69 65 63 66 68 72 67 69 61 67 72 60 58 62 69 68 70 72 77 76 74 74 76 76 76 74 73 74 74 74 76 75 73 73
49 55 43 54 64 67 71 70 68 72 71 68 65 66 70 67 65 68 65 60 57 62 63 69 70 69 70 70 71 73 72 73 74 73 73 72 74 74 73 73 75 75 75 72
57 57 56 62 63 64 64 66 66 68 70 71 69 64 61 62 65 61 59 58 58 66 71 73 69 67 69 69 71 72 71 70 69 71 68 71 72 70 70 71 74 74 72 68
52 57 66 63 61 63 65 69 64 70 68 62 64 59 59 66 60 60 67 64 68 71 73 74 70 68 68 69 70 70 70 70 71 69 68 68 72 71 70 67 68 70 69 66
MSLP
1022.59 1022.47 1022.39 1022.12 1021.57 1020.45 1017.88 1015.89 1012.13 1011.85 1012.03 1011.07 1008.96 1007.40 1006.37 1005.54 1004.50 1003.92 1003.92 1003.56 1002.40 1001.29 1000.11 999.55 998.46 997.00 996.21 996.70 996.59 996.26 996.50 996.23 996.06 995.32 995.77 996.24 995.68 995.73 996.36 996.25 996.37 995.95 995.38 994.54
1022.34 1022.33 1022.28 1022.14 1021.83 1021.50 1019.83 1015.60 1012.26 1011.21 1011.53 1009.10 1007.15 1006.26 1006.02 1005.25 1004.93 1004.44 1003.88 1003.27 1003.09 1002.47 1001.75 1001.09 999.86 998.10 997.83 998.08 997.69 997.32 997.02 996.58 996.21 995.98 995.52 995.24 995.58 995.56 995.38 995.80 996.25 995.77 995.59 995.48
1022.06 1022.14 1022.17 1022.05 1021.84 1021.59 1020.85 1016.23 1011.47 1009.99 1010.61 1009.16 1008.19 1006.71 1005.75 1005.40 1005.07 1004.86 1004.27 1003.49 1003.02 1002.48 1002.05 1001.48 1000.61 999.11 998.33 998.82 998.13 998.52 998.01 997.04 996.65 995.42 995.05 994.70 994.97 995.63 995.55 995.67 995.64 995.77 995.81 995.77
1021.83 1021.92 1022.01 1021.96 1021.74 1021.47 1020.88 1015.54 1011.72 1010.71 1009.00 1008.61 1007.81 1007.32 1006.83 1005.81 1004.69 1004.41 1004.27 1003.57 1003.23 1002.72 1002.12 1001.56 1000.57 1000.04 999.01 998.93 999.46 999.12 998.55 997.81 997.01 996.37 995.68 995.93 994.66 994.45 995.05 995.12 995.66 995.66 996.07 997.66
1021.54 1021.61 1021.80 1021.84 1021.50 1021.02 1019.43 1015.26 1013.04 1011.59 1010.40 1009.43 1008.61 1007.81 1007.39 1006.45 1005.05 1004.24 1003.47 1003.21 1002.90 1002.01 1001.87 1001.56 1000.75 1000.03 999.46 998.67 998.58 998.89 998.61 998.28 997.49 996.74 995.80 995.73 995.00 994.60 994.57 994.70 995.18 995.90 996.12 997.95
1021.27 1021.40 1021.57 1021.65 1021.43 1021.02 1017.88 1015.67 1015.01 1013.85 1010.71 1008.82 1008.02 1007.19 1007.36 1006.48 1005.79 1004.80 1003.85 1002.88 1002.38 1001.87 1001.47 1001.20 1000.90 1000.14 999.91 999.35 999.34 998.90 999.27 998.72 998.28 997.30 996.52 995.90 995.52 994.95 994.81 995.00 995.35 995.98 997.23 998.51
1021.03 1021.13 1021.36 1021.52 1021.35 1021.12 1019.08 1017.40 1016.66 1014.17 1010.86 1008.79 1008.09 1007.75 1007.61 1006.71 1005.60 1005.09 1003.96 1003.55 1002.96 1002.73 1002.65 1002.27 1001.53 1000.36 1000.36 1000.03 1000.01 1000.25 1000.02 999.89 999.10 997.88 998.30 998.87 996.31 996.07 995.56 996.00 997.06 997.46 998.52 1000.03
1020.73 1020.91 1021.13 1021.33 1021.31 1021.15 1019.80 1017.93 1017.05 1014.81 1012.12 1009.50 1008.53 1008.22 1008.39 1006.94 1005.60 1005.12 1004.06 1003.74 1004.02 1003.42 1002.77 1002.08 1001.68 1001.19 1000.62 1000.44 1000.15 1000.51 1000.40 1000.56 999.79 999.27 998.12 997.40 997.57 997.88 997.58 997.47 999.07 1000.29 1000.91 1001.54
1020.39 1020.72 1020.88 1021.09 1021.17 1021.15 1020.15 1017.86 1017.66 1016.59 1013.75 1010.57 1010.21 1009.45 1008.40 1007.36 1006.15 1004.93 1004.34 1004.00 1003.93 1003.12 1001.99 1001.65 1001.38 1000.75 1000.53 1000.62 1000.57 1001.15 1001.02 1001.41 1001.34 1000.30 999.57 998.70 999.88 1000.45 1000.90 999.95 1000.83 1002.86 1002.99 1003.19
1019.98 1020.41 1020.69 1020.90 1021.04 1021.08 1020.40 1018.06 1018.28 1017.16 1014.59 1011.80 1011.11 1009.81 1009.24 1008.42 1007.48 1005.96 1005.27 1005.37 1004.17 1003.53 1002.10 1001.76 1001.44 1001.51 1002.24 1000.50 1000.39 1000.84 1000.98 1001.54 1001.08 1001.01 1000.90 1000.41 1001.75 1002.21 1002.16 1001.75 1004.03 1004.50 1004.64 1004.62
1019.70 1020.10 1020.40 1020.68 1020.89 1020.94 1020.50 1017.65 1017.90 1017.61 1015.30 1012.62 1011.76 1011.22 1010.51 1009.62 1008.29 1007.46 1008.35 1006.19 1004.71 1004.43 1004.13 1002.98 1002.91 1003.48 1004.35 1002.22 1002.37 1002.56 1001.66 1001.83 1001.45 1001.72 1001.81 1002.24 1003.31 1002.92 1003.44 1005.46 1005.51 1005.78 1005.92 1005.86
1019.39 1019.84 1020.19 1020.46 1020.73 1020.84 1020.84 1018.11 1017.59 1017.35 1016.66 1013.40 1012.45 1011.85 1011.20 1010.55 1010.16 1009.80 1007.93 1006.96 1006.75 1006.95 1006.22 1005.44 1003.72 1003.50 1003.34 1003.45 1002.91 1003.59 1003.70 1003.45 1003.80 1003.88 1004.26 1004.72 1004.70 1005.48 1005.99 1006.14 1006.19 1006.56 1006.64 1006.59
1019.15 1019.65 1020.00 1020.27 1020.55 1020.70 1020.73 1018.66 1017.72 1017.37 1015.79 1012.93 1010.86 1009.72 1008.87 1009.29 1009.32 1009.47 1008.93 1006.87 1008.44 1008.17 1008.46 1007.11 1005.30 1004.14 1005.36 1003.47 1003.78 1003.69 1003.42 1004.20 1004.32 1004.03 1004.46 1004.95 1005.30 1005.86 1006.29 1006.83 1007.01 1007.07 1007.06 1006.94
1018.89 1019.45 1019.82 1020.07 1020.34 1020.53 1020.54 1018.59 1017.65 1017.65 1016.24 1013.08 1008.92 1008.84 1009.00 1008.79 1008.83 1009.15 1009.05 1008.94 1008.65 1008.34 1007.66 1006.73 1005.05 1004.56 1005.77 1003.47 1004.13 1003.91 1004.88 1007.11 1004.23 1004.43 1004.88 1005.25 1005.88 1006.71 1007.05 1007.13 1007.26 1007.39 1007.44 1007.51
1018.69 1019.22 1019.62 1019.99 1020.24 1020.40 1020.13 1018.61 1017.77 1017.81 1017.45 1013.99 1010.85 1009.24 1008.28 1008.23 1008.75 1008.91 1008.96 1008.87 1008.66 1007.43 1006.49 1005.95 1005.16 1004.29 1004.03 1003.79 1003.55 1003.02 1004.29 1004.49 1005.01 1006.05 1005.60 1005.63 1006.53 1007.21 1007.43 1007.34 1007.47 1007.63 1007.70 1007.57
1018.49 1019.11 1019.54 1019.91 1020.19 1020.41 1019.77 1016.96 1017.23 1017.64 1017.76 1015.76 1011.08 1008.24 1008.03 1008.23 1008.42 1008.60 1008.58 1008.35 1008.31 1007.63 1006.66 1005.93 1005.38 1005.18 1005.87 1004.54 1003.64 1004.10 1004.59 1006.11 1005.43 1005.74 1006.01 1006.48 1007.00 1007.49 1007.71 1007.80 1007.81 1007.99 1008.09 1008.05
1018.38 1019.05 1019.54 1019.89 1020.10 1019.62 1018.41 1018.15 1018.20 1018.46 1017.76 1015.93 1011.71 1007.68 1007.49 1007.80 1008.12 1007.84 1007.72 1008.01 1007.61 1007.23 1006.55 1005.89 1005.52 1005.35 1006.26 1005.19 1004.14 1004.85 1004.76 1005.13 1006.22 1006.36 1006.48 1006.47 1006.90 1007.33 1007.55 1007.59 1007.68 1008.00 1008.10 1008.19
1018.44 1019.12 1019.66 1019.97 1020.04 1019.81 1018.34 1017.09 1018.26 1018.29 1016.88 1015.05 1011.87 1007.99 1007.08 1007.60 1007.08 1006.95 1007.18 1006.92 1006.82 1006.76 1006.43 1005.78 1005.45 1005.30 1005.65 1005.03 1004.90 1005.29 1005.92 1006.25 1006.36 1006.43 1006.75 1006.93 1007.24 1007.25 1007.19 1007.40 1007.40 1007.54 1007.60 1008.21
1018.64 1019.39 1019.85 1019.76 1019.71 1017.62 1016.54 1017.58 1018.18 1018.03 1017.02 1014.32 1011.09 1007.91 1006.06 1006.87 1006.69 1006.19 1006.72 1006.62 1005.99 1005.81 1005.79 1005.29 1005.34 1004.89 1004.72 1004.94 1005.48 1005.85 1006.08 1006.30 1006.06 1006.57 1006.72 1006.58 1006.76 1006.97 1007.04 1007.34 1007.41 1007.68 1008.43 1008.87
1018.92 1019.57 1019.52 1017.31 1016.03 1017.27 1017.44 1017.90 1016.79 1016.50 1015.41 1014.60 1011.56 1008.42 1006.42 1006.31 1006.02 1006.19 1006.18 1006.13 1005.16 1004.86 1004.74 1004.59 1005.11 1004.69 1005.15 1005.50 1006.25 1006.72 1006.82 1006.84 1006.76 1006.72 1006.64 1006.65 1006.82 1007.00 1007.45 1007.65 1008.08 1008.84 1009.23 1009.53
1018.94 1018.80 1017.70 1016.26 1017.04 1016.52 1015.62 1014.56 1013.96 1013.16 1012.60 1012.07 1010.22 1008.67 1006.59 1006.18 1005.64 1005.59 1005.75 1005.13 1004.78 1004.35 1003.95 1004.53 1003.89 1004.00 1005.00 1006.19 1006.63 1006.90 1006.88 1006.92 1006.76 1006.82 1006.83 1006.84 1006.94 1007.41 1007.63 1008.64 1009.43 1009.90 1010.31 1010.15
1017.33 1017.28 1016.59 1016.14 1015.55 1014.86 1013.93 1012.79 1011.93 1010.89 1010.13 1009.73 1008.91 1007.80 1007.19 1006.03 1006.40 1005.59 1005.81 1005.40 1005.03 1004.43 1004.75 1004.68 1004.21 1005.56 1006.19 1006.43 1006.72 1007.00 1006.93 1006.83 1006.79 1007.00 1007.03 1007.19 1007.62 1007.74 1008.21 1008.70 1009.59 1010.46 1010.60 1010.55
1017.07 1016.97 1015.97 1015.16 1014.35 1013.71 1012.10 1010.53 1009.27 1008.88 1008.57 1008.85 1008.81 1007.45 1006.99 1007.09 1006.80 1005.93 1005.66 1005.40 1004.81 1004.75 1004.85 1004.39 1004.76 1006.44 1006.95 1007.16 1007.06 1007.36 1007.35 1007.29 1007.21 1007.32 1007.51 1007.64 1008.05 1008.31 1008.69 1008.56 1008.91 1009.42 1009.76 1009.69
1016.05 1015.61 1015.04 1013.71 1011.85 1010.42 1009.43 1008.70 1008.10 1007.65 1007.99 1008.64 1008.81 1007.63 1006.99 1006.32 1006.40 1005.76 1005.53 1005.16 1004.98 1004.80 1004.43 1004.12 1004.85 1006.64 1007.36 1007.68 1007.62 1007.69 1007.86 1007.82 1007.61 1007.71 1007.86 1008.16 1008.52 1008.45 1008.82 1008.96 1009.10 1009.24 1009.58 1009.99
1015.35 1013.86 1012.50 1010.87 1009.65 1008.54 1008.05 1007.90 1007.93 1007.90 1008.39 1008.44 1008.35 1007.76 1006.76 1006.62 1006.20 1005.72 1005.39 1005.41 1005.01 1004.34 1004.14 1004.51 1006.07 1007.21 1007.89 1008.24 1008.49 1008.41 1008.54 1008.56 1008.63 1008.77 1008.71 1008.74 1008.58 1008.95 1009.34 1009.43 1009.44 1009.68 1009.94 1010.39
1013.90 1012.51 1010.71 1009.26 1008.62 1008.09 1008.21 1008.11 1008.40 1008.76 1008.29 1008.26 1007.96 1007.30 1006.96 1006.00 1005.49 1005.18 1005.21 1005.11 1004.45 1004.12 1004.71 1005.56 1007.22 1007.88 1008.33 1008.68 1008.88 1009.01 1009.12 1009.34 1009.67 1009.78 1009.99 1009.62 1009.41 1009.59 1009.91 1009.84 1009.69 1009.91 1010.41 1010.88
1013.01 1010.90 1009.80 1009.17 1009.05 1008.08 1008.00 1008.06 1008.71 1008.53 1007.97 1007.67 1007.27 1006.33 1005.74 1005.43 1005.01 1004.76 1004.46 1004.30 1004.46 1004.73 1005.44 1006.38 1007.58 1008.28 1008.68 1009.02 1009.31 1009.55 1009.71 1009.86 1009.91 1010.05 1010.26 1010.17 1009.93 1009.72 1009.87 1009.95 1010.34 1010.55 1011.03 1011.71
Wind_Speed
8 7 8 12 15 23 13 7 7 6 6 8 9 13 18 17 16 12 13 15 16 17 15 10 19 16 8 3 13 13 18 14 13 17 19 19 21 19 20 14 16 13 13 13
8 7 6 9 11 11 9 7 10 7 6 9 10 11 14 13 13 16 18 16 18 17 15 13 17 18 12 3 11 6 13 13 13 17 17 13 10 17 10 19 15 15 10 6
9 6 5 8 9 8 7 7 5 7 7 11 10 14 8 13 16 14 19 18 17 17 16 14 12 13 3 0 7 11 6 10 14 15 18 13 23 19 17 16 12 13 15 15
9 6 5 7 9 8 6 7 3 7 4 6 8 8 14 13 12 10 14 11 19 18 17 17 16 15 18 9 6 6 8 12 13 18 17 16 20 22 22 21 17 16 5 13
9 7 5 6 10 13 7 7 6 9 12 11 9 6 7 17 13 14 13 14 16 16 19 18 16 17 13 13 13 11 7 9 11 12 16 12 17 11 12 16 19 17 21 11
11 8 6 4 8 9 5 5 9 8 10 10 9 4 8 11 13 15 14 18 9 13 8 11 17 17 12 4 9 3 6 8 7 15 17 15 15 14 14 14 11 8 4 14
12 10 7 4 4 8 8 6 8 8 12 11 6 3 11 13 13 9 15 6 10 5 9 10 17 12 14 9 7 9 7 6 10 12 10 18 9 10 6 4 12 8 13 10
13 11 8 6 3 6 8 5 6 8 11 12 9 3 9 14 13 10 8 5 7 8 8 10 12 10 12 13 14 7 8 8 10 11 14 9 12 6 2 4 14 12 8 6
14 12 10 7 5 5 7 6 4 6 8 6 11 12 9 11 9 10 8 5 7 13 10 11 12 12 12 13 10 8 9 5 9 11 13 18 13 10 10 1 6 10 8 10
14 13 11 9 6 5 7 6 2 6 10 15 7 10 11 10 11 7 4 11 9 9 12 2 5 0 16 11 12 10 11 9 13 11 13 9 10 4 5 9 7 8 9 10
15 14 12 10 7 5 7 4 1 7 8 15 17 15 13 11 6 6 9 10 3 3 11 4 7 8 6 5 5 6 6 6 8 8 12 11 13 2 6 5 6 7 8 9
15 14 12 11 8 6 6 7 1 4 8 14 19 17 19 17 13 10 8 4 4 4 8 7 6 4 2 5 5 2 4 4 5 6 6 4 11 12 8 6 6 7 7 7
15 14 12 11 8 7 7 7 5 5 9 13 15 13 12 11 11 10 8 5 4 2 3 7 3 5 4 7 5 14 12 8 4 2 6 7 6 7 9 8 7 6 7 8
15 14 13 11 9 7 8 8 3 4 6 7 3 3 8 3 7 8 10 9 6 7 7 8 8 6 7 9 6 16 9 10 10 6 7 8 9 8 7 6 5 6 9 9
16 14 12 10 8 7 8 9 6 4 6 8 11 18 13 7 8 8 8 7 7 8 6 6 8 10 8 7 10 9 7 7 3 2 8 5 8 6 8 6 7 8 8 8
16 14 11 9 7 5 6 5 4 4 4 6 7 3 5 6 7 10 7 7 6 6 7 6 7 3 6 10 8 4 10 3 4 8 6 6 5 2 4 6 6 7 7 6
16 12 10 8 7 8 6 8 6 2 4 5 6 5 8 7 10 9 8 6 7 4 7 7 8 5 5 10 11 6 6 10 5 6 4 1 4 8 9 7 6 3 6 2
15 12 9 6 4 10 9 5 11 5 6 5 6 6 5 9 7 7 5 5 5 6 6 2 6 7 4 8 7 10 7 1 2 1 1 2 2 6 6 7 7 7 8 4
15 11 8 4 4 6 4 11 8 6 5 6 5 10 4 9 10 4 4 4 5 3 5 9 3 5 6 2 4 1 1 4 2 1 4 5 4 6 6 8 10 8 4 1
16 4 5 6 3 19 11 6 6 7 6 5 7 11 6 6 7 5 4 4 6 5 7 3 5 9 9 6 5 1 3 6 7 7 9 2 6 5 5 9 11 6 5 6
2 4 4 6 4 6 6 5 6 7 6 6 8 11 9 5 6 7 3 1 3 5 5 5 6 6 9 7 4 2 4 4 6 4 3 3 3 4 7 9 12 11 9 6
6 3 5 5 6 6 6 6 6 7 8 8 9 9 10 3 3 4 4 4 3 4 3 3 6 8 7 7 6 3 2 1 4 2 2 3 1 4 6 8 8 6 4 3
3 2 4 3 4 3 8 11 5 6 4 5 4 7 5 2 5 5 3 4 5 2 3 5 7 8 6 4 4 4 1 1 1 2 2 3 2 4 1 1 4 5 7 2
4 7 5 8 7 7 9 9 9 3 3 5 6 9 6 5 9 5 5 4 1 4 5 3 9 8 6 4 2 3 1 4 4 2 3 5 2 2 4 3 5 5 6 5
5 6 6 9 9 7 4 6 5 3 2 2 7 7 5 7 6 4 1 3 5 6 3 5 10 7 5 4 1 1 3 3 3 5 4 6 4 4 3 3 4 3 3 4
5 6 7 4 6 8 5 5 4 5 5 3 5 7 7 8 5 6 6 6 5 1 3 8 7 6 5 3 2 1 5 4 4 4 5 8 4 4 4 6 2 3 4 6
4 7 8 6 6 3 3 4 6 9 5 6 5 9 10 2 6 7 7 4 3 5 5 5 6 6 6 5 4 3 4 2 2 4 4 5 6 6 7 5 3 3 3 6
Wind_Direction
265 295 321 329 337 331 307 287 264 112 191 225 229 240 243 264 288 261 229 269 289 301 314 307 290 278 302 72 275 228 237 235 237 219 200 220 240 211 221 242 242 273 297 298
249 277 314 327 336 1 318 282 292 133 233 254 242 222 258 274 273 264 259 244 251 261 276 281 267 288 76 23 248 252 231 235 243 242 243 196 243 257 233 221 246 271 267 271
232 255 304 316 324 340 293 279 273 169 201 271 291 300 274 252 236 254 276 276 268 262 260 258 275 287 234 324 337 6 320 249 233 252 229 237 200 227 240 245 237 235 242 261
226 239 275 305 312 326 283 239 272 11 274 245 259 284 311 311 288 218 253 253 246 256 253 253 258 252 280 183 136 243 246 249 252 258 275 267 279 200 221 232 235 253 146 93
221 222 246 293 315 316 257 298 332 358 290 277 268 253 261 294 276 277 267 232 267 242 236 250 255 256 269 271 183 238 227 259 275 258 253 247 258 252 263 247 216 233 259 108
214 212 229 279 317 322 293 1 287 266 293 250 238 207 261 290 320 285 247 274 271 262 275 258 248 263 287 332 306 265 291 298 226 247 252 214 238 243 228 249 235 260 3 81
207 204 212 236 307 330 308 315 300 275 269 271 279 70 299 284 301 301 307 293 274 359 318 282 275 261 245 251 233 281 279 279 294 275 108 295 85 13 335 38 40 39 91 88
203 200 205 222 249 296 291 316 290 297 285 291 302 298 293 297 280 235 244 62 354 300 259 227 213 222 235 232 236 222 251 290 273 267 266 239 148 102 45 328 82 43 13 30
199 199 204 210 230 271 279 282 310 279 293 243 354 303 281 285 317 269 257 145 319 307 271 214 199 207 203 210 199 226 232 235 270 258 269 273 83 38 345 111 143 39 24 20
195 197 204 209 221 241 284 300 220 274 277 274 322 331 340 326 316 308 339 346 305 316 300 314 258 103 329 227 209 174 202 233 233 235 254 256 41 23 244 234 70 30 12 17
192 196 202 205 217 241 272 314 234 282 290 294 290 291 293 305 309 355 269 276 211 298 319 312 198 152 238 290 71 323 320 311 246 234 267 238 3 293 355 44 60 17 9 11
190 193 199 202 205 225 265 270 143 255 259 293 312 287 276 276 279 298 288 3 67 43 303 323 345 307 260 320 288 72 254 290 340 10 18 60 66 79 81 38 46 28 13 5
187 190 193 198 198 213 251 311 342 271 260 267 241 244 232 233 242 241 270 74 4 129 306 271 240 229 266 247 319 290 195 163 232 234 119 69 83 110 60 46 30 17 13 358
184 186 194 194 196 206 245 281 346 284 280 276 144 113 215 218 231 228 250 272 302 260 253 270 279 279 212 272 157 225 105 343 243 172 130 144 93 47 27 30 44 8 4 14
179 184 189 191 200 219 250 266 257 262 291 322 320 315 272 194 208 230 227 243 268 284 268 245 258 291 328 305 293 313 24 55 9 101 54 6 90 35 15 6 11 4 348 4
176 180 184 182 197 231 269 221 151 210 241 281 274 340 197 193 194 211 209 235 244 272 283 279 272 64 313 278 257 45 119 134 13 83 43 42 37 76 16 346 344 0 321 7
168 170 170 179 198 241 272 352 25 335 214 253 266 236 156 181 185 211 213 188 255 252 269 238 264 231 201 261 278 70 31 85 62 73 7 277 61 347 330 312 312 272 286 67
155 152 162 185 222 268 258 231 187 255 256 267 271 261 173 180 195 213 215 250 194 206 246 283 266 184 216 256 85 138 139 118 188 30 48 339 333 290 309 325 297 294 274 90
136 135 150 183 231 237 87 117 136 217 298 306 256 263 169 159 241 200 168 262 209 156 226 240 192 250 218 97 91 56 39 286 311 106 276 282 324 349 334 347 311 0 12 246
125 151 204 208 130 118 132 174 195 196 197 222 258 282 271 180 197 191 218 200 257 194 206 96 225 246 91 136 82 246 266 259 263 263 278 301 327 344 340 9 40 34 119 127
174 167 227 75 154 201 215 228 218 179 211 205 241 256 272 191 220 190 252 233 198 249 136 217 202 206 135 131 145 194 222 229 244 247 322 328 342 336 58 64 61 53 24 26
172 196 280 168 214 224 214 210 212 226 232 165 237 208 230 152 297 246 156 271 225 270 120 243 245 98 120 140 133 149 155 196 168 217 191 345 27 84 121 127 122 109 144 323
149 197 207 202 224 215 217 208 205 206 204 134 235 202 212 159 246 262 180 239 248 57 241 240 76 113 109 125 165 133 348 250 251 200 273 115 176 82 308 127 106 161 178 148
185 178 198 211 203 225 219 234 223 191 67 143 189 246 205 212 187 234 213 224 315 244 254 251 113 122 126 192 177 179 93 316 292 260 261 158 187 218 33 48 19 3 20 4
200 212 217 216 249 242 235 218 223 112 222 203 189 228 245 179 224 235 260 159 245 217 255 68 98 124 160 178 278 146 252 259 294 310 317 354 12 331 320 316 331 34 7 9
231 232 243 254 234 227 195 201 212 250 223 196 229 199 217 206 223 187 206 229 239 196 94 90 128 152 162 164 183 12 345 356 4 312 329 295 289 322 254 261 289 67 8 38
246 225 238 251 280 283 182 184 186 233 222 213 212 218 193 289 225 208 214 226 11 85 90 109 116 162 158 147 130 155 135 193 301 302 296 299 283 239 211 210 85 69 66 71